METEOR 2-9

导读 | 豆包AI

METEOR 2-9是独联体(CIS)继承自苏联航天资产后,于1982年12月14日发射的流星二号系列气象卫星,运行于近地轨道。作为苏联第二代业务气象卫星,它搭载多光谱与热红外探测设备,可监测云层分布、海面温度、大气湿度等气象要素,为天气预报、气候研究和灾害预警提供观测数据,是全球气象观测网络的重要组成部分,其数据为多国气象研究提供支持。

基本信息
目录编号:
13718
目录名称:
METEOR 2-9
国际标识:
1982-116A
轨道中心:
EARTH
卫星名称:
METEOR 2-9
卫星全名:
--
卫星状态:
在轨 (已飞行15795 天)
发射日期:
1982-12-14 UTC
国别 :
俄罗斯(独联体) (CIS)
星等 :
--
轨道信息
数据来源 国际轨道数据 AOE轨道数据
星历时间 2026-03-13T18:33:44+0800
13小时前
查看轨道信息
2026-03-08T22:00:00+0800
5天前
查看轨道信息
半长轴 7217.276km 7217.28km
偏心率 0.005232 0.0052141
轨道倾角 81.246° 81.248°
近地点辐角 233.650° 247.869°
升交点赤经 81.315° 86.088°
平近点角 125.984° 209.014°
近地点 801.378km 801.511km
远地点 876.9km 876.775km
周期 101.700分钟 101.700分钟
每日圈数 14.159335 14.159322
详细信息
使用方式:
暂无
2D轨道图
3D轨道图
轨道高度分析图
轨道倾角分析图
轨道综合分析图
查看轨道综合分析图